Theta_e
329 325 324 322 321 320 318 317 303 309 308 302 301 304 302 308 308 309 309 312 310 316 316 317 321 319 314 314 316 317 316 314 316 308 310 326 336 338 338 338 334 331 335 337 339 342 345 346 346 342 340 340 345 348 347 346 346 345 342 347 347 346 342 339 338 341 342 342 342 341 341 341 343 343 343 343 343 344 344 344 344 344 344 344 343 343 345 345 345 346 345 345 344 344 343 343 342
324 324 324 324 322 320 312 312 307 303 304 300 302 303 305 307 308 308 309 311 312 315 316 321 321 320 318 319 319 319 318 321 321 320 327 333 337 336 338 339 331 331 337 338 339 340 344 346 345 342 340 340 342 346 345 343 345 343 341 342 343 343 342 340 341 341 342 341 341 341 343 342 342 342 343 343 344 344 343 344 344 344 344 343 344 343 345 345 345 345 345 344 344 343 343 342 342
323 322 322 322 320 316 312 312 302 301 299 297 301 303 305 306 308 309 312 312 314 317 318 320 320 318 317 316 316 315 318 324 324 329 328 334 330 332 336 337 331 333 337 338 338 340 344 345 343 342 340 341 342 342 342 341 341 342 340 339 341 342 341 340 340 341 341 340 342 342 343 343 342 342 343 343 342 344 344 344 344 344 343 343 343 344 345 344 345 345 344 344 344 342 342 342 341
327 325 321 319 313 317 307 307 305 301 299 299 300 304 306 307 309 312 312 314 317 318 318 317 316 320 317 313 316 319 321 321 328 329 327 330 332 335 336 335 334 334 338 338 337 342 343 344 343 344 341 338 337 339 340 340 340 346 343 342 342 340 337 341 340 338 341 342 342 342 342 342 342 343 342 342 342 342 342 342 342 342 343 343 343 344 344 344 344 344 343 343 343 342 342 341 341
326 323 325 318 315 308 308 305 303 302 298 300 299 303 305 308 311 311 311 317 315 316 317 318 318 320 321 319 319 316 321 327 328 332 331 334 338 336 336 336 332 335 337 337 338 342 343 342 344 344 340 337 337 339 340 341 342 344 345 344 342 338 337 343 341 340 341 341 341 341 342 342 342 342 342 342 341 341 342 343 343 343 343 343 343 344 344 344 344 344 343 343 343 341 341 342 341
321 322 325 322 312 313 308 303 301 301 303 304 301 303 305 309 311 312 314 315 315 316 313 318 316 317 316 322 320 319 327 321 330 331 332 333 336 336 336 336 331 334 336 337 340 342 344 341 343 344 340 339 339 339 340 341 343 346 346 345 341 340 345 343 342 342 341 341 341 342 343 343 343 342 342 342 342 342 342 342 344 344 343 343 343 343 344 344 343 342 342 342 342 341 341 341 341
319 318 319 316 312 314 304 301 301 302 303 304 303 303 306 309 312 315 313 313 314 313 311 318 316 318 314 320 322 326 330 329 330 331 335 336 337 335 335 332 333 334 336 336 341 343 345 341 345 345 343 342 339 339 340 341 344 346 345 345 345 344 344 343 343 342 342 342 342 342 342 342 341 341 341 341 341 341 340 341 342 341 341 341 342 342 343 343 343 343 342 342 341 341 340 340 339
322 315 315 310 307 307 302 302 302 303 302 303 304 304 306 309 314 314 313 312 310 311 313 317 318 315 316 321 319 327 330 331 334 337 337 336 336 334 335 332 332 334 335 338 341 342 345 340 344 344 344 342 341 340 339 339 343 343 344 344 344 344 343 343 341 341 341 341 341 340 341 341 341 340 340 340 340 341 340 340 341 341 341 341 342 342 342 342 342 341 341 341 341 340 340 339 338
318 315 313 311 305 305 302 300 302 303 303 303 304 305 307 308 315 314 312 311 311 312 315 317 317 311 317 317 319 326 329 333 336 336 336 335 334 334 333 332 331 333 335 337 340 344 345 339 342 343 342 343 343 341 339 339 339 340 343 344 343 342 341 341 340 340 339 339 341 340 339 340 339 339 339 340 340 340 340 340 341 340 340 340 340 341 341 341 341 340 340 340 340 340 338 338 337
314 314 308 308 308 303 302 301 299 302 303 305 304 305 304 308 313 315 313 309 312 312 317 318 315 310 317 315 319 325 328 334 336 335 336 335 334 333 332 333 333 334 335 337 340 342 343 344 339 341 341 343 342 340 339 339 338 337 339 340 340 340 340 339 339 338 337 337 338 338 337 339 340 340 340 340 340 340 339 340 340 340 340 340 340 340 340 340 340 340 340 340 339 339 338 337 336
308 311 313 307 304 303 301 300 300 302 302 304 304 306 306 310 314 312 313 312 312 313 315 317 312 312 316 316 322 326 330 333 333 331 334 335 334 332 331 335 336 336 334 338 340 341 342 344 341 338 340 340 340 342 342 341 338 337 338 339 340 340 339 339 337 337 336 336 340 341 341 341 341 341 340 339 339 340 340 340 339 339 340 341 341 341 341 340 340 340 340 339 339 338 337 336 335
306 308 310 305 303 304 303 301 300 301 303 304 304 307 306 310 313 310 310 309 310 314 314 316 312 318 314 315 320 327 330 332 333 334 334 335 332 332 332 332 335 335 336 337 340 340 341 344 343 342 336 337 338 339 340 340 340 339 338 338 340 341 339 338 337 336 336 339 341 341 341 341 341 340 341 340 341 340 339 339 339 340 340 340 340 340 340 340 339 339 339 338 338 337 336 335 335
310 309 306 304 304 304 301 299 301 300 301 303 306 307 309 311 311 312 312 312 313 312 313 317 319 318 309 314 322 326 327 331 334 335 334 334 332 332 333 332 334 334 336 338 339 339 342 342 341 342 339 332 334 335 336 338 339 340 339 338 339 341 342 341 341 342 342 341 341 341 340 340 339 339 339 339 340 339 338 340 339 339 339 339 340 339 339 339 338 337 337 337 337 337 336 335 335
311 311 307 305 301 301 300 302 301 299 301 305 306 308 309 310 313 312 312 310 311 311 315 318 318 315 314 315 319 324 327 333 334 334 333 333 332 331 332 332 333 334 336 337 336 338 341 342 341 342 343 340 341 337 332 335 337 339 339 339 340 341 340 341 340 340 340 340 339 339 339 338 338 338 337 337 337 337 337 339 339 338 338 338 338 338 338 338 337 336 337 337 337 336 335 334 334
311 310 308 306 301 301 302 302 301 300 301 305 305 307 308 309 309 310 312 310 312 313 318 321 321 311 305 309 314 323 328 333 333 334 333 331 330 330 331 331 331 334 334 335 336 337 338 340 340 341 342 341 340 339 340 341 333 335 336 336 338 338 338 337 337 337 336 336 335 334 334 332 332 332 332 333 334 334 334 332 334 337 337 337 337 337 337 336 335 335 336 335 336 336 335 334 333
314 311 307 303 301 301 302 301 299 300 301 304 304 305 309 307 308 309 311 311 312 313 317 314 318 312 315 311 316 326 331 333 333 332 330 329 329 329 329 329 329 330 333 334 335 337 338 338 340 340 341 341 341 340 340 341 333 331 334 335 335 335 334 334 333 332 330 329 329 330 329 333 331 333 328 333 329 331 329 331 332 337 337 336 336 336 336 335 334 334 334 333 332 333 332 332 331
313 314 302 303 300 300 303 302 301 299 303 303 303 307 307 307 306 306 309 312 311 312 315 319 318 320 318 319 322 330 333 333 330 330 328 326 325 325 326 326 327 328 331 332 333 334 337 337 338 338 339 340 340 341 341 341 340 331 331 329 329 329 331 331 328 324 322 322 325 324 328 336 337 336 337 336 329 334 322 325 330 335 336 335 335 335 334 335 334 333 333 331 329 327 326 325 325
311 305 304 301 305 301 304 303 303 303 302 301 303 308 309 306 305 307 312 312 314 314 315 319 319 321 323 325 325 331 332 330 330 327 326 324 324 323 323 324 325 325 327 330 332 333 333 335 337 337 338 338 340 340 340 340 341 336 339 339 339 334 329 327 333 338 335 337 324 333 336 334 334 335 335 334 335 335 331 322 325 330 333 332 332 334 334 333 332 332 331 329 327 326 324 333 329
306 305 304 303 304 305 305 304 304 302 301 301 302 305 308 309 308 308 308 308 311 311 314 317 318 320 324 324 327 330 330 329 328 328 326 324 323 322 322 324 324 325 325 328 330 332 333 333 335 336 337 338 339 340 340 339 339 339 339 338 338 333 335 337 337 336 337 336 336 335 332 334 335 335 332 331 331 319 325 320 324 326 327 327 328 329 330 330 329 329 327 325 325 324 334 333 333
304 305 302 305 306 303 304 303 303 303 302 301 301 302 305 309 308 310 307 307 310 308 310 313 315 317 321 324 326 328 329 328 328 328 327 325 324 322 322 322 323 325 326 328 328 331 332 332 333 334 336 337 337 338 340 338 338 338 338 337 336 335 337 336 336 336 336 336 336 334 333 334 333 332 324 324 328 333 329 319 318 319 320 320 320 326 324 325 325 324 322 322 328 329 333 331 332
306 303 305 306 304 303 302 303 302 301 301 301 301 301 302 307 308 309 308 306 307 309 312 312 312 317 322 324 325 328 327 327 328 328 327 326 324 323 322 323 323 325 327 327 328 328 331 331 332 332 335 336 336 336 337 337 337 337 337 336 336 334 334 334 334 335 335 336 335 334 334 332 332 331 331 331 331 331 332 332 332 332 332 332 322 331 331 330 330 332 332 329 332 332 331 331 332
306 305 305 305 303 303 302 302 301 300 299 301 301 301 302 306 305 307 308 306 307 310 312 314 315 319 323 323 325 327 327 327 327 327 327 328 325 322 322 324 325 326 327 326 327 327 329 330 332 331 333 334 335 335 335 336 337 336 335 336 335 333 334 334 334 334 334 335 334 334 331 330 330 330 329 329 329 329 329 330 330 330 330 330 329 330 329 331 331 332 332 331 330 331 331 331 330
304 304 302 304 304 303 302 301 299 300 300 300 301 303 303 304 305 308 308 308 308 307 310 314 315 320 325 326 326 325 326 326 327 327 327 328 326 323 322 324 324 323 325 326 327 327 328 330 331 332 330 332 333 334 334 334 334 335 335 335 333 332 332 333 333 333 333 334 334 333 331 330 329 328 328 328 327 328 327 328 328 328 329 330 329 328 328 329 330 330 330 330 330 330 330 330 330
303 304 302 302 301 302 301 301 298 299 301 301 303 302 302 303 301 305 306 310 309 311 311 308 313 321 326 325 326 325 325 326 327 328 329 329 328 325 324 323 324 325 326 326 327 327 328 329 331 332 331 331 332 333 332 332 333 333 333 333 332 331 331 331 332 333 334 332 333 332 330 331 329 328 328 327 327 328 327 327 328 327 327 329 328 328 328 329 328 329 331 330 329 328 329 329 329
303 304 303 303 301 301 301 300 299 298 299 300 301 301 302 303 303 302 304 308 310 314 314 310 317 322 324 325 325 326 327 327 328 328 329 330 330 328 327 324 325 325 324 325 327 327 328 329 330 330 330 330 331 332 331 330 331 331 331 331 330 329 331 331 332 332 332 332 332 333 332 331 330 330 329 328 327 326 326 326 326 326 327 327 328 327 327 329 329 330 330 330 329 329 328 329 328
305 306 304 302 302 302 301 300 299 298 299 298 300 300 301 301 301 301 305 307 309 317 319 318 321 321 323 324 325 326 326 327 327 327 328 330 330 328 328 327 326 324 325 326 327 327 328 329 329 329 330 331 331 331 331 330 330 330 330 330 330 331 331 331 331 330 331 333 332 332 332 331 331 330 330 329 327 327 326 326 326 326 325 326 326 327 326 329 330 330 329 329 328 328 327 327 324
307 306 304 302 303 302 301 300 300 297 298 299 301 301 300 300 301 302 305 306 310 315 318 321 320 320 322 324 325 326 326 327 327 329 328 329 328 328 328 329 328 326 326 326 327 328 329 329 329 330 331 331 332 330 331 330 330 329 330 331 331 330 331 331 330 330 331 331 332 333 333 332 331 331 331 330 329 329 328 327 326 326 326 326 327 327 328 328 330 329 329 328 327 326 324 324 323
304 305 302 301 301 302 302 300 299 298 299 298 301 300 300 300 300 302 305 307 311 311 317 319 319 320 323 324 325 326 327 328 329 328 326 326 326 327 328 328 328 329 328 327 328 329 329 328 329 330 330 330 330 330 331 330 330 330 330 331 330 331 331 330 329 329 329 330 332 332 332 332 331 332 332 331 330 330 329 328 328 327 327 327 327 327 327 328 328 329 329 328 328 325 325 326 326
301 303 302 300 300 300 302 301 301 299 300 298 302 300 298 298 298 304 302 307 311 311 315 318 318 319 322 324 324 325 326 327 328 327 328 328 329 329 328 330 330 329 331 331 330 330 328 327 327 329 330 330 329 329 330 330 331 330 330 330 331 331 330 330 329 329 330 331 331 331 331 332 332 332 332 332 331 331 330 330 329 328 329 329 328 329 329 328 326 326 326 326 325 326 326 326 327
302 301 302 299 300 299 302 301 299 298 300 298 300 296 300 300 301 301 303 307 311 310 311 315 318 320 321 323 323 324 325 327 327 327 329 329 330 329 329 330 331 331 331 332 331 329 328 328 328 329 329 330 330 330 331 331 330 330 330 330 331 330 330 330 329 330 330 330 331 331 331 331 332 332 333 333 332 331 331 330 330 330 330 330 329 330 328 329 327 327 327 325 323 325 326 327 325
299 301 302 299 297 300 301 301 299 299 299 298 299 297 302 302 304 304 306 308 308 307 309 312 316 319 319 321 322 323 324 326 326 328 329 330 330 330 330 331 331 331 332 332 331 331 330 330 329 328 328 330 329 329 330 331 331 329 329 330 330 330 329 329 330 331 329 330 331 330 331 331 332 332 333 333 332 332 331 330 331 331 331 330 330 329 329 329 329 328 327 327 327 326 326 326 325
301 297 295 298 298 300 298 300 299 299 298 299 298 296 299 303 302 299 302 306 308 306 307 310 315 317 318 319 321 322 323 325 326 327 329 329 330 330 330 330 331 331 332 332 332 332 331 331 330 329 329 329 329 328 329 331 330 330 330 327 331 331 329 330 330 330 331 331 331 332 332 332 332 333 333 333 332 332 331 331 331 332 332 330 329 329 329 329 329 329 329 328 326 326 326 325 325
298 298 298 295 297 299 297 300 299 299 298 298 299 298 299 300 303 299 298 305 305 305 306 307 310 315 317 318 320 321 323 324 326 327 328 329 330 330 330 330 331 331 332 332 332 332 332 332 331 331 330 329 329 328 328 330 330 330 330 330 330 330 329 329 330 331 331 331 331 331 332 331 331 332 333 332 331 332 330 331 332 333 332 329 329 329 328 330 329 328 328 327 327 326 326 325 326
295 298 298 299 296 298 297 299 299 300 299 296 298 295 299 300 301 300 299 301 304 304 305 305 306 309 314 317 319 320 321 322 323 325 326 328 329 330 331 328 331 332 332 332 332 332 332 333 332 332 332 331 329 329 328 329 330 330 331 331 330 329 329 330 331 330 330 330 331 331 332 332 331 332 332 332 331 332 332 331 333 332 329 329 328 328 327 328 327 326 326 326 325 324 324 324 324
294 294 296 297 297 298 299 299 297 298 297 297 297 296 298 301 303 302 303 301 302 302 303 304 305 306 309 313 316 318 320 321 323 326 327 328 329 330 330 331 331 332 332 332 332 332 332 332 332 331 331 332 331 331 330 330 330 331 331 331 330 330 329 330 330 330 331 331 331 332 333 332 331 332 332 331 331 330 330 331 331 330 328 327 327 327 327 326 325 325 326 326 326 325 325 326 324
299 299 299 300 297 297 297 301 296 297 297 296 296 295 297 299 301 303 303 302 301 302 303 303 303 305 306 308 312 316 318 320 323 326 327 328 329 329 329 330 330 331 331 331 330 332 331 331 331 332 331 332 332 332 331 330 329 329 328 329 329 329 329 328 329 329 331 332 333 333 333 333 332 331 332 331 330 329 330 330 331 331 328 327 326 326 327 327 326 326 325 325 325 324 322 322 323
303 302 301 300 300 300 297 298 297 296 296 296 298 297 298 299 301 302 303 301 301 301 301 302 303 304 305 306 308 311 314 316 323 324 325 326 328 329 329 329 329 329 329 330 330 330 331 331 330 330 331 331 331 331 330 329 328 328 329 328 328 329 329 329 329 329 330 331 333 334 334 333 332 331 331 331 329 326 328 330 330 330 328 326 327 327 329 328 327 327 326 325 323 322 323 322 322
301 300 300 299 299 299 299 299 296 296 296 298 295 295 297 298 300 301 303 299 299 300 300 301 303 303 305 307 307 308 310 315 318 318 320 324 325 327 328 328 326 326 327 328 328 329 330 331 330 330 332 331 331 331 332 331 331 330 329 329 330 331 330 327 328 329 330 331 332 332 333 334 332 331 330 330 329 329 328 328 329 329 328 326 326 328 328 325 327 326 326 324 324 322 322 325 324
300 300 299 299 298 299 297 295 295 295 296 299 297 295 298 300 299 301 301 300 301 302 302 302 302 303 303 304 305 305 306 307 310 313 317 319 323 325 326 327 327 328 328 327 329 329 329 330 331 331 332 332 331 331 332 331 333 333 332 332 332 331 333 333 332 331 331 331 332 332 332 332 331 332 332 330 330 330 330 329 328 328 327 326 325 326 327 326 326 326 326 323 322 323 323 325 323
300 299 297 297 299 297 297 296 295 294 296 295 293 292 296 300 301 300 302 301 301 302 302 302 303 303 304 304 305 306 303 304 305 308 311 316 319 322 324 325 326 327 327 328 328 329 329 329 330 331 331 333 332 332 329 333 334 334 334 334 335 333 332 333 333 333 332 331 331 332 333 333 333 333 333 332 330 330 330 330 330 329 328 327 327 326 325 325 326 326 326 325 324 321 321 322 324
301 300 300 300 294 297 300 295 293 293 293 292 294 294 295 299 299 300 301 301 300 301 301 301 303 304 305 308 306 305 303 304 306 306 307 309 313 317 321 324 326 326 327 327 328 328 329 329 330 331 331 332 332 331 331 333 333 332 333 334 334 334 334 333 331 330 331 331 331 332 332 333 333 332 332 332 330 330 330 330 330 329 328 327 327 326 327 326 326 327 326 325 324 322 320 322 322
297 299 301 301 298 297 295 293 293 294 294 294 293 291 294 301 301 302 305 299 298 300 300 300 301 302 302 300 302 304 306 305 304 305 306 307 308 312 318 322 323 325 326 327 329 329 329 330 331 331 331 332 331 331 332 332 331 331 330 329 326 327 327 327 326 327 328 329 329 332 333 332 332 332 332 332 332 330 330 329 329 329 328 327 326 326 327 328 328 325 325 325 324 325 323 321 320
296 297 298 300 299 299 296 294 295 293 291 292 291 291 291 297 296 298 300 300 301 301 299 300 301 302 302 301 302 303 304 304 305 304 305 305 306 309 312 317 321 323 325 327 329 329 329 330 331 331 330 331 331 331 332 330 331 330 330 329 329 328 327 328 329 330 330 331 332 332 331 332 331 331 331 332 331 330 330 330 329 329 330 329 328 328 327 327 327 326 327 326 326 324 322 320 320
296 299 299 297 298 296 295 295 296 296 292 294 289 292 287 288 295 301 300 296 297 299 300 300 301 301 301 301 302 303 304 304 306 306 305 305 305 307 307 311 316 320 323 325 326 328 328 328 329 329 330 330 331 332 331 331 329 329 329 329 329 329 328 328 329 330 331 331 332 331 331 331 330 331 330 330 330 329 329 329 329 329 330 331 329 329 328 329 328 328 328 327 326 323 321 321 321
298 296 299 296 297 296 295 294 292 292 290 289 291 293 287 288 293 295 296 296 297 298 299 300 302 302 302 303 303 304 304 305 305 306 306 305 305 305 307 309 313 316 319 320 323 325 327 328 328 329 329 329 330 331 330 330 330 330 329 329 328 328 329 329 330 331 330 331 330 330 330 330 330 331 331 331 331 330 327 327 328 329 328 329 327 327 327 329 328 328 325 323 323 324 324 324 323
294 296 298 296 296 295 295 292 292 291 288 286 290 291 286 289 295 296 295 294 296 299 301 302 302 303 303 303 304 305 304 305 305 305 306 307 307 306 307 308 309 311 315 318 320 322 324 326 326 327 328 329 329 330 329 330 329 328 328 328 327 328 328 329 330 329 329 329 328 329 330 330 330 329 330 331 330 330 329 327 327 327 326 326 323 325 324 325 326 326 325 324 325 325 325 323 321
296 297 295 294 295 293 292 292 291 289 284 287 291 290 290 285 294 296 295 296 297 299 301 303 304 304 304 305 306 308 305 305 306 305 305 305 307 307 307 305 306 307 311 313 316 319 322 323 325 325 326 328 328 328 329 329 329 328 327 328 328 328 328 327 327 327 327 328 327 328 328 328 330 329 329 329 330 330 329 328 328 328 327 326 325 325 324 325 325 326 326 325 323 323 323 322 320
297 294 293 293 290 292 291 289 290 284 284 287 289 290 290 283 291 296 301 297 297 299 299 301 302 303 303 304 303 303 303 303 303 303 303 304 302 302 302 302 304 305 306 307 311 315 319 321 323 323 324 325 327 328 328 328 328 327 327 328 328 328 328 327 326 325 326 327 327 326 328 329 328 328 328 328 328 329 329 329 328 328 328 328 326 326 325 326 326 327 325 323 322 323 323 320 319
295 293 294 289 284 286 282 285 281 282 284 285 286 287 285 286 294 295 296 297 298 297 298 300 302 303 304 304 305 303 303 301 301 302 303 303 303 303 302 302 303 303 304 304 306 310 314 318 320 321 322 324 325 327 327 327 327 326 326 326 327 328 328 328 327 326 326 326 326 326 327 326 327 325 326 327 327 328 328 328 328 327 328 328 327 326 326 326 327 325 322 321 322 321 321 320 319
291 291 291 288 283 282 280 283 284 284 286 285 286 288 284 291 294 298 297 300 300 300 300 300 301 301 302 304 303 299 302 302 302 303 303 305 305 305 305 305 305 305 304 304 304 307 310 314 318 319 320 323 325 326 326 326 326 326 327 326 327 327 326 327 328 327 327 327 327 326 327 327 326 325 326 327 329 329 329 329 328 328 328 328 327 327 326 326 326 325 323 321 321 321 321 320 319
291 296 296 291 288 284 281 284 281 284 286 284 287 286 286 287 293 294 298 299 298 297 297 298 298 299 300 299 298 298 299 301 303 304 305 305 305 304 305 305 305 304 304 304 304 304 307 311 314 317 319 322 323 324 325 325 325 326 326 327 327 327 327 327 327 327 328 327 327 326 327 327 327 327 327 328 329 329 328 328 328 328 328 328 326 326 325 325 326 325 323 322 321 321 319 318 317
293 294 298 292 290 295 287 285 287 283 283 282 282 286 293 294 297 297 298 298 297 297 297 297 297 298 298 297 298 299 300 301 303 302 304 304 303 303 304 305 305 304 304 304 303 304 305 308 312 315 317 320 322 323 324 324 324 325 326 326 326 326 326 327 326 327 328 328 328 326 326 326 327 327 328 328 329 329 328 327 326 326 327 327 326 325 324 324 324 323 321 320 319 318 317 316 316
290 292 289 293 295 292 285 283 283 284 285 284 288 286 291 295 296 298 299 296 296 296 295 296 298 300 300 299 301 301 302 303 303 304 303 303 303 303 303 304 305 305 305 305 305 304 304 306 309 312 315 318 320 322 323 324 325 324 325 326 326 326 326 326 326 327 327 328 328 327 326 326 327 327 327 327 328 327 327 326 325 325 326 326 325 325 324 323 322 320 319 318 318 316 317 316 316
292 287 293 293 297 295 289 285 283 283 283 285 285 285 289 289 288 298 297 296 298 298 297 297 298 299 298 300 304 305 305 304 302 301 300 300 300 300 302 303 303 305 305 305 305 305 305 306 307 310 313 315 318 321 322 323 323 323 324 325 325 326 326 326 326 327 327 327 327 327 326 326 325 325 326 325 326 325 325 319 324 324 325 324 324 324 323 321 320 318 317 317 317 316 316 315 314
295 294 300 293 287 287 289 286 279 280 279 283 285 284 284 288 291 294 293 294 297 298 299 296 297 298 299 302 304 305 302 299 299 300 301 301 301 302 302 303 303 303 302 304 305 305 305 305 306 308 310 313 316 319 321 322 323 324 324 324 325 325 326 326 326 327 327 326 325 325 325 325 325 325 324 322 322 322 322 321 322 322 322 322 323 322 321 320 319 315 314 312 314 314 313 312 311
294 294 294 296 292 291 286 286 287 287 283 280 283 282 286 292 292 296 297 296 297 299 299 298 298 299 300 302 304 304 307 306 304 302 302 302 302 301 300 301 302 302 302 302 302 304 304 305 305 306 309 312 314 315 318 319 321 322 323 324 325 325 325 326 326 325 325 325 325 324 324 324 325 324 324 323 322 320 319 318 319 319 319 320 320 320 318 316 316 315 313 310 311 312 310 307 305
288 291 291 290 289 292 293 290 286 286 285 283 284 283 288 294 295 296 298 299 298 299 300 302 301 300 300 301 303 303 304 306 305 303 302 302 302 302 300 299 298 298 298 298 300 302 305 305 305 305 306 308 310 313 315 317 318 319 320 321 322 323 323 324 324 324 324 324 324 323 324 325 326 323 324 322 320 319 318 317 317 316 317 316 316 315 315 314 313 311 310 309 308 310 307 305 304
291 291 290 291 288 285 284 283 287 283 285 281 282 282 289 294 293 295 297 300 301 301 299 299 298 298 300 305 304 302 304 303 301 300 300 302 302 302 300 298 299 298 300 301 302 302 302 303 305 305 305 306 307 310 313 315 317 318 319 320 321 322 323 323 322 323 323 323 324 324 323 324 322 321 320 318 317 316 315 315 315 315 315 315 315 314 312 311 311 309 308 309 308 308 306 306 305
Wind_Speed
4 1 1 1 2 1 3 2 5 3 4 1 2 3 4 0 1 4 5 6 7 4 3 3 8 9 2 2 5 4 3 3 6 4 4 4 4 8 9 5 9 10 11 9 8 8 10 9 8 9 9 9 13 12 11 12 12 10 11 15 13 11 13 11 11 13 13 13 13 13 14 14 14 15 15 16 16 16 16 16 16 16 16 17 17 17 17 17 18 18 18 19 19 19 19 19 19
2 1 1 2 1 3 1 2 1 2 1 3 2 0 5 4 3 6 9 7 4 6 4 5 8 4 2 3 1 2 4 6 6 4 3 4 7 8 8 7 10 11 10 9 8 7 10 10 7 9 10 10 12 11 9 12 13 12 11 12 14 13 12 11 13 12 12 12 12 13 14 12 13 14 15 15 16 16 15 15 16 16 16 17 17 17 17 17 18 18 19 19 18 18 18 18 18
1 2 3 2 1 3 2 1 4 0 2 2 4 2 3 5 6 6 8 4 5 7 6 5 6 4 2 2 5 4 4 2 4 3 5 6 9 8 8 9 9 10 10 8 8 8 8 10 7 9 10 10 13 13 12 11 10 11 11 11 11 11 11 10 11 12 12 11 12 13 13 13 13 14 15 15 16 16 15 15 15 15 16 16 16 16 16 16 18 18 18 18 18 18 17 18 17
2 2 2 0 2 2 2 1 2 2 2 2 1 6 6 4 5 6 7 5 7 8 6 8 9 1 3 4 3 0 3 3 3 6 5 7 3 10 8 9 9 8 8 7 8 8 8 10 8 8 9 8 9 12 11 10 10 13 11 12 11 9 9 12 11 11 12 12 12 13 13 13 13 13 14 14 14 15 15 15 15 15 16 16 15 16 16 16 17 18 17 17 18 17 17 17 17
1 2 3 0 3 1 2 2 1 2 2 2 2 4 6 4 6 7 5 6 6 4 7 7 3 3 2 3 2 3 4 5 4 3 6 6 6 10 10 9 9 9 8 7 8 8 8 10 8 7 9 10 10 10 11 10 10 11 11 10 10 9 9 12 12 11 11 11 11 12 12 12 13 13 13 14 14 14 14 15 15 15 15 16 15 15 16 17 17 17 17 17 17 16 16 16 16
0 1 4 1 2 2 2 3 4 3 4 1 1 3 5 4 7 7 9 7 4 1 2 9 2 5 4 1 2 1 2 1 5 4 8 6 9 10 11 9 9 9 8 7 7 7 9 8 8 8 10 10 10 10 11 11 10 11 10 7 9 10 12 12 12 11 11 11 11 12 12 12 12 12 12 13 13 12 12 14 15 14 14 15 15 15 16 17 17 16 16 16 16 16 15 15 14
1 2 2 3 4 2 3 2 0 1 4 2 3 2 4 6 7 11 10 7 2 1 1 5 1 4 4 4 3 2 4 2 5 4 6 9 10 10 11 9 10 10 8 7 7 7 10 8 8 8 7 8 10 10 11 10 11 11 11 9 9 11 12 11 11 12 11 11 11 11 11 12 12 12 12 12 12 12 13 13 14 14 14 14 14 15 16 16 16 16 16 15 15 15 15 14 14
2 3 2 3 2 2 2 1 2 2 3 2 3 3 2 6 9 10 12 9 7 6 7 1 3 5 4 1 1 5 2 1 3 6 8 10 11 11 10 9 10 10 8 7 7 8 9 7 8 8 6 7 8 10 10 10 12 11 12 11 10 11 12 12 11 11 11 10 11 11 11 11 11 11 11 11 11 12 12 13 13 13 13 14 14 15 15 15 15 15 15 15 14 14 14 13 13
4 1 0 2 3 1 2 3 1 1 2 2 3 3 3 2 9 10 12 2 6 2 10 6 4 6 4 5 1 4 2 2 3 8 10 11 12 11 8 9 10 9 8 8 8 8 9 6 7 8 6 6 6 9 10 9 9 10 11 12 11 10 11 11 11 10 10 10 11 10 10 10 10 10 10 11 11 12 11 12 12 13 13 13 14 14 14 14 14 14 14 14 14 13 13 13 12
2 3 3 1 1 4 2 3 4 2 2 1 3 1 3 5 8 7 11 6 5 6 5 3 3 4 4 3 3 4 3 3 7 9 10 11 11 11 9 8 9 10 9 8 8 8 8 7 6 6 5 6 7 8 9 8 7 8 10 10 10 10 10 10 10 10 9 9 10 9 10 10 10 10 10 10 11 11 11 11 12 12 12 13 13 13 13 13 13 13 13 13 13 12 12 12 12
2 2 3 4 4 3 5 3 3 3 2 1 5 6 3 7 7 6 6 4 2 5 6 4 4 5 5 2 2 3 2 4 9 11 11 11 10 10 9 7 7 9 9 9 8 8 9 9 5 5 5 5 7 7 8 7 7 7 9 10 11 9 10 10 9 10 9 8 10 10 10 10 10 10 10 10 10 10 10 11 11 11 12 12 12 12 12 12 12 12 12 12 12 11 11 11 11
3 2 2 4 5 5 1 2 1 1 3 2 2 4 4 9 7 7 8 7 6 5 7 10 2 7 3 1 3 4 4 7 8 10 10 10 9 9 8 7 8 9 9 9 8 8 8 10 8 6 4 4 6 8 7 7 7 6 8 9 10 10 10 10 9 9 8 10 10 9 10 11 12 11 10 10 8 9 9 10 11 11 11 12 12 12 12 12 11 11 11 11 10 10 10 10 10
1 1 3 4 2 4 3 2 1 1 3 4 1 3 5 11 12 11 11 3 7 7 4 9 3 4 4 3 3 4 6 9 9 11 10 10 8 8 7 7 9 9 9 8 8 8 8 9 8 8 6 6 6 7 7 8 8 6 7 8 8 10 10 10 9 10 9 10 10 11 11 11 11 11 10 9 8 9 7 7 10 11 10 11 11 12 12 11 11 11 10 10 10 9 9 9 9
3 2 3 4 2 0 3 1 1 3 4 4 2 3 8 7 8 2 7 8 8 6 4 4 2 3 1 1 4 5 7 10 11 11 9 10 7 7 8 7 9 9 9 9 9 8 6 7 8 9 8 8 7 6 8 8 8 7 7 7 8 8 9 10 11 11 11 11 11 9 9 10 9 9 9 8 7 7 7 7 9 10 10 10 10 11 12 11 10 10 10 9 9 9 8 8 8
2 1 2 1 3 2 2 4 1 3 2 2 3 5 7 1 1 2 8 10 6 5 3 1 1 3 2 7 4 8 11 12 12 12 11 10 9 8 9 7 9 9 9 9 8 8 8 7 7 8 10 8 8 7 7 7 8 7 7 8 8 9 8 9 10 10 10 10 9 9 8 9 9 8 8 8 7 7 7 7 6 8 10 9 9 10 11 10 9 9 9 9 9 9 8 8 8
2 3 1 5 5 6 4 4 1 2 2 1 3 1 7 4 1 5 3 4 4 3 4 5 2 2 3 2 6 6 14 14 13 13 12 11 9 9 8 8 8 9 8 9 9 8 7 8 7 6 7 9 8 7 7 8 7 8 7 8 8 8 9 9 9 9 10 9 9 9 9 9 8 7 7 7 7 8 8 7 6 7 10 10 9 9 10 10 9 9 9 9 8 8 8 8 7
0 2 5 5 6 6 5 5 6 4 4 1 3 6 9 7 2 2 3 3 4 6 6 1 4 0 2 4 4 7 15 13 13 13 12 10 9 8 7 7 7 8 7 10 9 9 9 9 7 6 7 7 8 8 8 8 7 8 7 7 8 7 8 9 9 8 9 8 8 8 7 6 6 6 5 5 6 6 8 8 9 10 9 9 8 8 9 9 9 9 9 9 8 7 6 8 7
3 6 7 7 4 9 6 6 6 3 1 3 5 7 7 7 5 3 3 4 1 4 6 3 1 3 2 3 1 10 14 14 14 14 11 10 9 8 8 7 8 8 9 9 10 10 10 9 9 8 6 7 7 6 6 7 6 7 8 7 6 6 6 8 7 7 7 6 6 6 5 5 4 4 4 4 5 6 6 8 9 10 9 9 10 8 9 9 8 8 8 8 7 6 1 3 4
5 3 5 8 6 2 2 2 4 3 4 2 2 4 6 3 9 5 6 7 6 5 7 4 6 5 3 2 8 14 14 14 15 14 15 14 10 11 9 8 9 8 9 9 9 11 9 9 10 10 8 8 8 8 6 6 8 6 6 6 5 6 6 6 6 6 6 6 6 5 5 4 3 3 3 4 4 7 6 7 8 9 9 8 8 8 6 7 6 6 6 6 4 1 1 2 2
2 4 8 7 5 4 2 2 4 2 2 2 3 4 7 4 5 6 6 5 6 11 9 7 9 10 9 7 10 13 14 15 15 15 16 14 11 11 10 10 9 9 9 9 9 9 10 8 10 10 10 8 9 8 6 6 7 6 6 5 5 5 6 6 6 5 5 6 5 5 4 3 3 3 6 6 6 4 5 7 6 7 8 7 5 5 5 5 5 5 4 1 2 1 2 2 2
3 4 8 5 7 7 5 4 3 3 3 2 2 3 6 5 5 7 5 5 10 11 12 12 13 12 12 10 12 14 14 15 15 15 15 15 11 10 10 10 9 8 7 8 8 9 11 10 9 10 10 9 9 7 7 6 7 6 6 5 6 5 5 5 5 5 5 5 4 4 3 4 3 3 4 3 3 3 4 4 3 2 2 2 0 2 1 2 3 2 2 2 1 1 1 1 1
2 5 4 7 6 4 8 6 5 5 2 2 3 5 3 4 3 9 9 11 8 8 10 11 5 8 13 14 14 15 16 15 16 16 18 18 16 13 11 9 8 7 7 8 10 9 10 10 10 9 10 10 9 8 8 7 6 6 6 5 6 6 6 5 5 5 5 5 5 3 4 4 4 4 4 4 3 4 4 4 3 3 3 3 2 1 1 1 3 2 1 1 1 1 1 1 1
8 2 2 3 7 4 6 5 4 5 5 5 4 2 4 7 4 9 12 15 1 4 3 4 8 8 12 12 14 16 17 18 18 19 19 19 16 15 13 10 10 9 8 8 9 8 10 11 11 9 9 10 12 9 7 7 7 7 7 5 6 6 6 6 5 5 5 5 5 4 4 4 4 4 4 4 4 4 4 4 3 3 3 2 1 1 1 1 3 3 2 1 1 1 1 1 1
5 4 5 5 3 6 5 3 4 4 6 4 2 3 5 6 7 2 11 15 2 3 1 1 2 8 13 14 15 18 19 20 21 21 21 19 15 15 13 12 10 9 9 9 9 9 9 12 11 11 9 10 10 10 9 8 8 7 7 5 6 6 6 6 5 5 4 5 6 5 5 4 5 4 4 4 4 4 4 3 3 3 3 2 1 1 2 2 4 3 3 2 2 2 1 1 1
10 5 8 3 2 3 3 1 3 3 4 3 2 4 3 6 1 3 10 15 7 2 2 4 7 9 11 13 15 15 16 16 16 17 15 14 13 10 10 8 10 9 10 11 9 9 10 10 11 12 10 11 10 10 10 8 8 8 8 8 8 7 7 7 5 5 5 5 6 6 6 5 5 4 4 4 4 4 3 3 3 3 3 2 2 2 2 3 4 3 3 3 2 1 1 1 1
11 3 7 2 3 3 1 2 2 4 1 3 4 5 2 1 2 7 14 7 6 5 4 6 9 10 12 13 14 15 15 18 16 16 17 14 14 15 12 11 10 11 11 10 10 9 9 11 12 13 12 10 10 10 9 8 8 9 8 8 8 7 8 7 7 6 5 5 5 6 6 6 5 4 4 4 4 4 4 4 4 3 3 3 3 3 2 2 3 3 3 3 2 2 2 1 3
3 6 7 5 3 1 2 1 4 3 2 5 6 3 3 2 4 5 3 2 5 6 5 5 9 11 12 10 11 12 13 15 17 14 13 14 14 15 15 12 12 11 10 11 10 9 9 11 11 12 12 10 9 10 9 9 9 9 9 8 8 8 8 7 7 7 6 6 5 5 6 6 5 5 5 5 4 4 4 4 4 3 3 3 3 2 2 2 2 3 2 2 2 2 2 2 3
3 8 5 2 2 3 2 2 4 3 3 7 5 3 2 4 3 7 3 3 3 7 6 7 9 9 10 11 11 11 10 11 10 12 17 18 15 16 17 14 15 14 13 12 10 9 10 12 11 12 12 11 11 10 10 9 9 9 9 8 8 8 8 8 8 7 7 7 7 6 6 6 6 5 5 5 4 5 4 4 3 4 3 3 3 3 3 3 2 2 2 2 2 3 3 2 2
4 6 8 5 2 7 7 7 4 4 3 6 6 2 6 8 9 6 2 2 4 6 6 7 9 9 9 10 9 9 10 10 11 13 16 15 13 12 16 16 16 15 10 12 12 11 12 12 11 12 12 12 13 12 10 9 8 8 8 8 7 8 8 8 8 8 8 8 7 8 7 7 6 6 6 6 5 5 5 5 5 4 4 3 3 3 3 3 3 3 3 2 3 3 3 3 2
5 3 3 5 6 8 10 2 2 4 1 6 5 9 11 13 12 5 5 6 6 6 8 8 7 6 6 8 9 9 8 10 13 14 13 13 13 14 15 16 16 14 10 10 11 12 10 8 8 9 11 12 13 11 10 9 9 8 8 8 7 8 8 8 8 8 8 8 8 9 9 9 7 7 6 6 5 6 6 6 6 5 4 4 4 4 4 4 3 3 3 3 4 4 4 3 2
5 4 3 5 7 6 9 6 7 7 4 6 2 11 9 4 9 8 3 4 9 8 9 9 8 6 5 6 8 9 11 12 14 13 12 13 13 12 15 14 16 16 11 11 15 14 13 10 9 8 11 13 12 13 12 10 9 10 9 8 8 9 8 8 7 7 8 8 8 8 10 8 8 7 7 6 6 5 6 6 6 5 4 4 4 4 4 4 4 4 4 4 4 4 3 3 3
3 6 7 3 7 4 5 4 7 12 4 4 5 9 11 7 6 4 3 4 7 9 9 9 7 6 6 6 8 9 10 11 12 11 12 13 13 12 14 15 15 16 16 14 14 13 13 12 11 11 12 14 13 14 12 11 10 11 10 9 7 9 8 8 7 6 7 7 7 7 9 9 8 8 7 7 6 5 5 5 5 5 4 4 4 4 4 5 5 4 4 4 5 5 3 4 3
2 5 4 8 5 3 3 7 2 3 3 6 11 6 1 9 5 5 4 6 7 8 8 8 8 8 7 7 7 8 8 10 11 13 13 13 13 13 13 14 15 16 15 14 14 15 15 14 13 13 13 14 13 14 14 12 10 11 11 9 9 9 9 8 7 6 6 6 7 7 8 9 9 8 8 7 6 6 8 7 5 4 4 4 4 4 4 5 4 4 4 4 4 5 4 5 4
7 3 3 6 11 7 5 6 2 1 5 8 8 7 11 3 1 4 4 5 7 8 9 7 6 6 7 7 8 8 9 9 12 13 15 15 13 16 13 13 15 14 14 14 14 15 15 15 14 14 13 12 12 12 13 12 11 11 10 9 10 9 11 8 7 7 7 6 7 7 8 9 8 8 8 7 7 7 9 8 5 4 4 4 4 4 5 3 3 3 4 3 4 4 5 6 7
10 11 10 7 7 7 6 6 5 5 3 7 7 10 14 14 8 7 7 6 7 10 8 7 7 7 6 7 8 9 9 10 12 10 13 15 15 13 13 13 13 14 12 15 15 14 13 13 13 13 14 14 13 12 12 12 11 11 9 9 11 12 10 10 9 9 9 8 7 8 8 8 8 8 8 8 8 8 9 8 5 5 4 4 4 5 5 4 4 4 6 5 4 5 5 5 5
13 14 11 6 8 8 9 3 3 3 7 9 10 11 13 13 14 14 6 7 8 10 5 2 4 5 6 7 8 8 9 12 10 8 10 11 12 11 11 12 12 13 14 14 16 16 15 14 13 13 14 15 14 12 11 11 10 10 11 10 11 10 10 10 10 10 9 9 9 9 8 8 8 8 9 9 10 10 9 8 6 5 5 4 5 5 5 5 6 6 5 5 3 3 3 4 4
10 9 7 7 7 4 2 1 4 2 3 9 10 12 13 13 14 13 10 5 5 8 8 8 7 6 7 7 9 10 11 14 6 9 10 11 11 11 11 11 12 14 15 16 16 17 18 17 15 16 14 15 14 13 12 11 11 10 10 12 12 11 11 10 9 9 9 9 10 10 10 8 8 8 8 8 9 9 10 7 6 5 5 5 5 6 7 7 5 5 5 4 5 6 6 4 4
9 8 8 6 5 7 3 4 3 2 5 4 2 7 13 14 13 13 8 5 11 11 11 10 10 9 8 8 9 10 12 5 6 8 11 11 11 13 12 12 14 17 16 17 18 19 19 19 18 16 15 15 16 15 13 12 12 12 10 10 10 11 10 10 10 9 10 9 10 10 10 10 9 8 8 9 9 10 8 6 6 6 6 6 7 7 6 5 4 5 4 5 5 6 7 5 4
7 8 7 5 6 2 1 2 1 2 2 10 4 8 14 16 13 12 12 11 10 11 11 11 11 10 9 8 8 10 6 7 7 12 10 11 12 13 13 13 14 16 15 17 18 17 18 17 18 17 16 16 15 15 14 14 13 13 12 10 11 11 11 10 10 10 9 9 10 11 10 10 9 10 10 10 10 10 9 8 7 7 9 6 6 7 7 7 7 7 7 7 6 5 5 4 5
8 8 8 10 6 8 6 6 4 3 4 2 2 7 11 15 14 15 15 13 11 11 12 12 10 11 11 12 11 8 7 8 10 11 11 11 12 13 13 13 14 14 15 15 16 17 15 17 18 19 18 18 15 16 14 15 15 14 14 14 13 13 11 10 11 11 9 10 11 11 11 12 11 12 12 12 11 10 11 8 7 7 8 7 7 6 7 10 9 8 7 7 8 8 5 6 7
9 10 9 8 6 8 5 2 2 1 3 1 7 11 13 14 15 14 13 11 9 10 10 10 9 9 10 6 4 7 11 10 9 10 9 9 10 13 15 15 13 15 16 16 16 16 14 19 20 20 17 17 17 16 17 16 14 13 12 12 12 11 9 9 9 11 11 10 11 12 13 13 14 12 11 12 11 10 11 12 9 7 7 7 7 7 9 10 10 11 8 7 8 9 8 7 4
7 8 9 7 7 7 3 3 2 4 5 5 3 7 10 9 17 18 12 7 9 9 10 11 11 11 10 11 13 11 9 9 10 11 10 10 11 11 11 12 13 14 15 17 16 17 17 16 17 16 13 13 14 18 18 15 14 14 13 12 14 14 14 13 15 12 11 12 14 11 9 10 12 11 11 12 12 11 12 12 12 9 8 8 9 8 8 9 10 4 5 7 8 10 10 8 5
9 9 6 4 7 7 6 5 3 6 8 2 2 10 8 1 5 7 7 10 16 9 9 12 11 10 10 10 11 11 11 11 10 11 8 8 10 10 12 13 16 15 16 13 13 15 16 14 12 14 14 13 14 16 18 15 16 15 16 17 16 16 16 12 10 10 12 11 10 10 11 10 12 12 12 11 12 12 9 11 12 10 10 9 9 9 9 11 10 9 8 8 8 6 6 8 9
8 8 12 5 6 7 7 7 8 4 4 1 2 5 10 11 11 9 5 6 9 12 13 13 11 11 10 10 11 11 11 12 10 12 12 12 10 12 14 16 14 15 11 8 11 12 14 16 15 15 13 13 12 14 17 18 18 18 17 18 15 16 16 15 12 12 13 11 12 10 9 11 11 12 10 10 11 11 8 10 10 11 13 13 10 9 10 9 10 10 10 7 6 5 6 9 8
1 3 10 8 7 5 6 5 3 1 4 8 6 3 5 10 3 4 2 10 11 15 16 15 14 12 13 12 11 11 12 12 11 9 11 12 14 14 12 11 14 13 12 12 12 12 12 13 14 14 15 14 14 17 16 20 15 16 17 17 16 15 16 15 11 10 12 11 14 11 11 9 10 11 11 12 12 12 9 9 10 10 10 10 7 7 7 8 11 9 7 7 10 10 9 10 10
2 6 9 8 7 6 3 3 2 1 4 11 7 8 7 15 5 7 5 6 13 17 17 16 14 13 11 11 11 12 11 10 10 12 11 9 11 11 12 11 9 12 10 10 11 11 12 12 14 16 17 14 14 17 18 18 20 16 18 18 19 17 15 14 13 14 15 15 15 15 10 11 10 10 11 12 12 13 11 10 11 12 10 9 7 8 9 7 5 7 8 9 11 11 10 10 10
12 11 11 7 5 2 3 2 1 3 10 11 7 8 7 11 5 10 8 10 12 9 9 10 10 11 12 10 10 9 10 9 8 9 10 9 6 5 5 9 10 6 5 9 11 12 11 12 14 16 17 14 14 16 18 19 19 19 19 19 19 17 16 15 15 16 15 14 15 12 11 11 10 10 9 10 12 12 12 10 11 11 10 9 8 9 10 9 8 8 9 10 11 11 10 10 9
13 6 9 8 2 2 3 0 1 4 10 3 3 8 11 10 4 8 10 2 1 9 13 16 16 14 11 9 8 8 6 3 4 6 8 6 4 5 5 8 9 7 6 9 10 10 11 12 12 15 15 16 15 15 16 17 17 20 20 20 18 17 17 15 18 18 18 14 12 14 13 10 10 9 10 9 10 11 11 10 10 10 9 9 10 9 9 9 9 10 9 8 7 9 10 8 8
4 10 12 10 4 4 3 3 6 10 7 2 2 3 2 20 13 4 4 8 8 9 9 9 10 11 10 10 8 5 3 5 5 5 4 4 5 5 7 8 7 9 9 10 11 10 11 12 15 16 16 16 15 14 16 17 17 19 20 20 18 15 17 16 15 16 16 16 15 15 13 11 11 11 12 11 11 13 10 11 11 11 10 10 11 10 9 9 10 9 8 8 8 10 10 10 9
10 13 12 10 9 8 7 6 2 5 1 2 3 2 9 11 9 14 18 19 14 11 9 9 9 10 9 1 1 2 3 4 4 3 4 5 5 5 6 7 7 6 7 8 8 9 9 10 13 16 17 14 13 13 14 16 18 19 19 18 18 15 16 18 15 14 15 14 14 15 13 14 13 11 11 12 12 14 12 11 11 12 11 10 10 11 10 11 10 8 8 9 10 9 10 11 10
5 6 10 6 5 5 9 10 11 6 1 4 3 2 6 3 1 3 8 7 5 2 4 6 8 9 6 2 4 6 7 6 4 5 6 6 6 5 4 4 4 4 5 6 6 7 7 9 11 15 15 13 14 15 13 17 17 19 18 17 17 14 16 13 15 13 13 14 13 14 15 14 13 12 12 12 13 13 12 12 12 12 12 12 10 9 8 8 10 9 8 9 8 8 8 8 8
3 1 3 6 11 0 4 2 2 2 2 3 3 8 4 6 7 7 7 9 8 6 8 7 9 8 3 5 6 6 6 6 4 6 7 6 4 4 3 4 4 3 4 4 6 6 7 9 10 12 13 12 12 13 15 16 17 15 17 18 18 16 12 12 12 11 12 13 13 12 13 14 13 12 12 12 13 14 13 12 10 11 12 12 10 10 9 9 9 9 8 8 8 5 7 8 7
8 6 11 7 5 4 3 2 3 2 1 8 5 7 9 5 12 16 12 4 8 5 6 8 10 8 4 7 7 6 6 6 5 6 5 4 3 3 4 4 3 3 3 5 5 5 7 8 8 11 11 11 12 12 14 14 15 16 17 17 17 17 16 15 14 15 13 13 12 11 11 12 13 12 12 11 14 12 11 12 11 12 12 12 11 11 10 9 8 8 7 8 8 7 7 9 8
9 6 10 4 2 5 2 4 2 3 7 5 5 12 9 1 8 2 8 8 10 8 9 6 6 6 8 9 6 5 5 4 4 4 4 5 5 5 4 4 4 4 4 3 4 5 5 6 8 9 10 11 11 11 12 14 15 16 16 16 17 16 14 15 15 15 12 12 11 11 11 11 13 12 11 9 11 11 11 11 11 11 11 11 10 10 9 7 8 7 8 9 7 8 8 7 7
8 10 9 11 7 10 7 2 4 6 6 5 4 5 9 9 12 3 4 11 14 12 5 4 6 6 7 7 7 4 6 5 4 4 3 3 3 3 3 3 2 2 3 3 3 3 4 5 7 8 10 10 9 8 10 11 13 11 11 14 15 15 15 14 13 13 12 12 13 13 13 12 11 12 10 9 11 11 10 10 10 10 9 10 9 9 8 8 8 7 7 6 7 7 7 7 5
2 2 11 1 3 7 7 6 1 1 6 0 3 3 7 9 9 13 11 4 10 13 8 8 7 7 5 4 4 4 3 1 2 3 3 2 2 2 2 2 1 0 0 1 2 2 4 4 6 7 7 7 7 8 9 12 12 12 11 11 11 11 12 13 11 11 9 11 12 12 12 12 12 11 12 12 12 11 11 10 9 9 9 9 9 8 7 8 7 9 8 8 7 8 8 8 6
9 9 11 5 4 4 2 0 3 4 4 5 4 4 5 2 5 8 16 15 9 12 12 7 5 4 5 6 5 5 3 3 2 2 2 2 2 2 1 1 1 2 2 2 3 3 2 2 4 5 6 7 8 8 8 9 10 12 13 14 14 12 12 9 10 12 13 13 12 10 12 12 12 12 12 11 10 10 10 10 10 9 10 9 9 8 7 8 7 7 7 9 8 8 9 8 8
11 12 13 15 10 7 10 11 4 0 3 3 3 8 0 2 3 8 10 10 9 2 1 1 3 5 6 7 7 4 4 1 3 4 3 3 3 2 1 1 2 2 2 3 2 2 3 3 2 2 3 4 5 5 6 7 9 10 12 13 13 11 11 10 10 11 12 11 11 10 11 11 12 10 10 9 9 9 9 9 9 9 9 10 9 9 8 8 9 8 7 8 10 9 8 8 8
Wind_Direction
297 314 248 242 239 296 233 7 250 115 243 127 133 207 106 50 353 161 134 137 159 128 120 133 131 149 198 334 352 14 7 282 9 282 61 77 146 136 145 135 140 142 141 142 139 142 141 125 126 119 119 112 113 111 113 113 110 104 99 102 104 103 97 100 101 100 91 93 95 96 99 104 104 99 99 96 92 92 91 87 86 85 82 80 79 81 80 81 80 79 77 75 75 75 74 74 72
287 314 231 248 269 286 173 320 260 184 189 167 135 300 106 146 209 183 153 167 67 139 142 140 154 123 36 320 352 161 108 33 5 59 86 105 141 140 146 154 150 148 142 141 144 147 132 128 126 126 122 119 115 116 118 114 113 104 100 106 105 98 96 98 103 101 98 97 98 101 105 102 96 93 91 90 91 89 88 89 86 84 83 81 81 83 81 83 82 80 78 77 77 76 74 74 74
337 317 193 217 202 11 135 238 248 174 244 220 128 155 111 177 196 158 148 85 100 109 129 133 134 167 216 191 187 286 91 61 86 86 100 142 136 159 156 151 155 149 140 145 146 147 139 127 132 126 125 130 124 113 106 101 106 115 111 99 99 100 98 97 93 90 92 92 89 89 89 94 96 95 96 94 89 87 88 86 85 85 84 83 84 83 81 84 82 79 80 80 78 78 77 75 74
287 355 280 252 290 191 283 211 277 241 254 22 209 139 181 195 165 120 87 91 110 133 141 146 174 64 297 217 18 250 98 115 82 123 127 165 149 149 154 156 151 148 143 148 151 146 139 130 129 129 128 121 120 118 111 106 106 72 88 101 95 97 101 105 100 99 95 95 100 100 98 101 104 103 96 92 90 88 87 87 88 87 86 85 85 86 84 82 83 82 82 82 81 80 79 78 76
251 35 321 77 287 57 325 31 348 256 271 157 37 135 197 204 133 128 102 113 117 142 166 157 177 84 348 340 12 303 82 77 137 154 133 144 108 149 157 157 156 147 150 151 150 146 132 125 125 132 127 126 123 121 118 112 88 85 87 102 104 103 107 99 97 94 94 98 95 93 93 95 100 98 95 95 94 92 90 87 87 85 87 85 85 84 84 84 83 84 84 81 83 82 80 78 79
253 331 24 325 300 47 211 197 180 225 39 16 284 74 183 173 148 133 125 129 102 67 11 172 301 156 187 114 11 20 119 167 115 161 150 150 150 154 158 159 156 153 148 151 151 150 140 128 131 131 132 135 133 130 123 112 100 102 111 103 108 101 87 101 100 98 96 94 93 91 93 95 97 97 97 95 91 89 88 88 88 88 86 87 88 87 84 84 85 86 86 86 85 85 85 84 83
313 228 55 94 121 246 295 248 218 267 104 313 8 31 177 149 139 134 139 138 149 83 226 183 194 124 217 124 156 81 55 66 183 137 178 137 147 157 157 164 156 151 151 152 157 145 137 134 136 131 134 134 135 130 123 113 109 106 110 109 102 104 100 92 93 97 97 96 93 92 90 90 94 99 101 98 95 94 92 89 91 90 88 90 90 90 89 87 86 86 87 88 87 87 86 85 82
109 266 15 258 106 279 218 324 261 265 82 269 20 354 107 151 150 160 157 172 166 189 182 206 212 249 57 275 243 104 72 12 12 132 129 147 149 153 166 163 160 150 152 151 158 145 126 141 132 133 137 134 137 137 128 121 113 108 114 115 106 109 106 104 100 98 101 100 99 94 93 92 91 95 101 99 95 93 92 88 85 86 89 88 87 89 89 90 90 90 90 88 87 86 85 83 81
28 19 265 218 195 100 222 233 332 30 321 196 226 249 349 203 177 165 167 154 120 233 162 178 174 206 124 151 92 101 92 88 173 130 145 150 154 154 168 170 162 153 152 156 155 143 147 121 137 139 140 137 132 135 128 122 115 115 111 117 117 111 109 110 110 108 106 106 100 101 101 101 99 102 105 102 99 97 96 94 91 88 89 91 90 90 90 90 92 92 91 90 86 84 82 80 79
95 310 190 238 20 224 259 188 228 129 256 107 276 132 171 181 186 197 164 156 158 162 135 102 168 261 124 163 134 160 112 146 146 151 148 156 151 156 165 172 163 155 155 159 158 158 145 126 131 143 145 134 130 131 131 129 124 116 112 105 121 122 112 109 112 113 111 111 110 113 111 104 102 103 100 102 100 100 100 96 93 93 92 95 94 94 93 92 92 93 92 91 88 85 83 80 77
207 59 351 206 209 237 223 165 214 170 208 176 258 226 192 174 188 178 173 136 101 174 129 172 182 199 194 97 16 54 87 167 162 157 156 159 151 156 163 163 160 162 157 163 159 164 145 149 114 128 135 133 129 120 119 134 130 122 115 95 95 110 115 114 106 104 107 112 92 90 97 104 104 104 104 101 100 100 103 100 95 93 93 93 96 95 93 90 90 90 90 91 90 87 84 81 78
182 216 202 223 222 237 179 268 174 233 260 245 219 139 171 174 172 183 185 174 169 167 169 185 158 145 176 120 159 116 136 168 168 152 156 159 158 156 155 164 164 165 162 164 163 166 161 148 159 120 117 120 116 116 124 123 119 115 108 103 105 105 105 109 108 106 116 107 97 101 107 103 94 94 92 90 92 101 102 102 98 88 89 88 90 88 85 84 84 87 90 90 90 90 86 84 79
264 108 199 230 218 228 67 253 160 305 271 213 75 120 156 167 189 195 180 174 162 168 188 191 70 219 195 171 63 137 174 171 159 153 153 163 154 153 157 162 170 166 163 169 173 166 168 160 154 163 124 104 112 117 114 120 125 119 121 119 106 112 106 106 102 94 86 103 108 108 99 94 96 94 82 80 81 88 83 84 96 94 88 88 87 87 84 82 84 87 88 88 87 88 87 82 81
202 195 183 213 36 183 202 264 76 248 184 86 75 114 177 176 196 197 162 186 178 197 49 142 166 180 83 209 157 177 175 166 155 149 146 161 148 153 163 158 168 171 173 181 175 168 172 164 162 163 146 163 151 124 116 123 123 125 119 108 95 101 106 100 100 102 102 98 100 96 97 94 91 88 86 71 64 64 57 65 99 100 95 87 86 88 86 82 84 88 86 82 84 86 86 84 78
135 194 162 85 159 217 168 232 252 214 144 80 92 164 173 218 40 170 196 211 165 54 102 338 343 218 132 201 164 183 164 163 156 147 148 153 151 158 160 163 172 177 181 189 178 173 177 166 165 163 169 169 165 169 160 132 128 122 122 109 108 111 103 103 108 108 106 107 104 98 91 95 86 80 80 72 69 65 66 74 61 101 102 94 88 86 84 82 82 78 75 76 78 79 79 81 74
120 168 167 194 196 211 156 209 184 253 137 39 109 66 173 127 266 184 190 339 96 94 192 166 209 305 347 257 45 145 150 154 145 143 141 147 154 156 161 169 177 180 192 195 181 180 179 177 174 174 176 171 170 170 163 158 131 129 127 117 114 116 116 113 114 112 112 111 109 114 115 117 114 96 94 93 69 65 52 56 50 98 105 98 89 91 87 82 79 77 76 74 72 74 74 69 69
187 265 183 207 207 199 151 202 172 215 82 112 131 174 177 178 138 326 0 257 184 156 195 112 186 255 8 48 47 133 145 140 136 138 139 149 159 164 169 172 183 182 192 196 192 186 182 186 173 180 185 175 174 175 168 162 129 130 130 119 120 121 121 120 115 117 118 121 129 124 145 150 141 134 150 114 101 70 56 66 68 71 87 88 90 93 93 82 76 73 71 71 73 77 82 79 65
211 199 214 206 201 194 156 195 181 28 70 83 184 196 203 177 159 141 173 163 53 125 203 117 159 214 350 45 259 152 142 142 148 148 154 159 171 169 174 176 181 188 189 192 195 191 192 191 181 191 181 187 182 178 178 162 145 178 169 157 155 140 131 134 148 153 147 141 132 159 170 161 160 155 125 115 122 124 74 52 64 70 69 70 68 73 75 76 75 75 74 68 68 75 204 148 123
220 184 213 223 184 122 143 116 139 172 100 67 139 196 224 179 166 161 207 182 182 182 208 191 197 182 128 122 142 152 152 153 159 164 165 172 178 176 174 171 184 185 191 193 193 194 196 194 191 188 192 187 194 193 187 174 172 185 178 180 165 177 160 178 182 164 175 171 172 178 178 163 146 137 113 79 100 64 75 59 71 73 73 74 79 73 65 73 80 79 71 71 71 264 147 84 78
301 218 207 223 129 114 188 139 145 219 123 153 184 180 216 170 189 124 225 188 188 217 198 196 214 200 176 137 156 162 167 166 169 171 176 180 183 176 176 175 180 189 188 195 194 197 196 198 195 193 192 194 197 200 197 188 189 187 187 193 192 189 184 194 190 183 178 180 181 190 179 125 123 115 106 115 127 138 108 93 85 95 100 83 101 110 102 79 103 97 86 124 155 71 59 68 63
141 232 224 174 141 146 178 181 157 140 203 142 165 118 213 192 188 179 182 207 220 230 223 200 204 198 162 156 165 169 171 174 178 180 183 184 186 182 182 180 180 180 187 190 198 200 200 198 194 197 189 193 203 197 204 202 197 197 194 196 200 199 196 196 193 189 184 178 177 180 142 138 158 158 162 156 168 159 167 165 160 165 172 149 319 119 158 146 202 161 157 200 91 103 72 63 355
150 239 340 129 147 195 146 164 149 155 168 212 153 181 175 100 164 211 195 215 228 224 218 218 230 178 153 166 172 175 178 180 185 188 191 191 188 185 183 175 174 176 177 193 198 201 203 201 199 197 195 195 201 202 204 198 199 199 203 201 200 206 202 202 196 195 189 188 184 159 150 168 172 169 172 172 172 178 179 180 179 178 182 184 203 191 152 186 196 191 171 179 100 61 49 50 39
224 164 251 157 159 161 148 171 177 168 160 186 188 161 109 181 203 210 216 227 103 52 56 225 213 172 165 160 163 178 185 189 191 195 194 196 192 188 183 176 171 180 182 195 191 202 202 204 200 199 197 196 200 205 205 204 205 209 210 196 203 204 206 206 204 202 198 189 190 169 182 181 180 183 184 187 183 190 191 193 190 189 190 193 164 207 142 148 207 200 203 158 97 90 97 90 69
279 220 174 187 157 128 151 150 134 214 186 183 80 93 203 175 229 134 228 239 149 76 1 155 175 152 149 159 176 181 188 191 197 198 197 198 193 189 181 175 176 176 185 188 191 195 199 202 200 200 198 196 198 202 205 207 208 209 211 192 209 206 207 210 209 208 196 195 195 192 199 185 184 187 188 190 191 196 199 199 200 199 200 195 179 198 185 166 199 204 195 158 167 153 154 179 167
218 227 186 160 198 108 156 156 198 215 213 70 143 189 210 210 245 118 237 239 219 135 135 144 152 154 166 170 178 187 191 198 201 201 202 206 202 190 184 177 178 180 186 185 187 191 194 198 199 201 199 197 197 199 205 206 208 210 208 212 211 199 209 212 213 210 210 208 200 201 201 198 192 188 184 183 184 201 195 202 206 210 211 209 206 188 212 182 188 193 197 199 203 230 223 200 240
219 219 172 176 207 164 169 166 196 195 171 193 189 224 161 238 70 248 249 236 203 145 141 146 152 162 177 186 183 186 192 197 198 199 202 201 204 202 193 189 186 191 191 186 186 191 191 192 199 201 200 197 197 197 205 206 207 210 211 212 212 204 214 211 211 214 219 208 206 204 204 210 200 196 184 178 187 196 200 204 208 214 219 212 218 200 198 215 191 186 194 201 215 243 266 288 285
194 156 173 188 196 155 115 184 169 169 225 183 219 163 149 131 199 246 121 333 142 172 170 165 168 178 185 187 188 195 196 197 196 194 197 201 203 206 205 199 199 201 191 194 191 190 186 191 197 202 203 201 197 200 204 206 204 210 211 212 213 213 213 210 211 216 220 222 214 200 205 214 209 205 191 184 186 192 202 204 209 209 217 208 214 209 188 219 210 212 198 219 231 266 282 304 285
137 138 124 179 214 249 190 232 195 185 190 190 230 169 128 164 192 241 68 63 178 193 183 191 198 186 186 190 188 193 201 201 194 192 198 199 202 204 204 201 204 204 199 198 194 188 184 190 196 198 203 202 204 204 204 208 205 210 212 213 212 214 212 213 214 214 218 222 223 209 211 210 216 212 206 192 192 201 208 210 203 208 210 197 204 207 194 210 220 207 204 256 271 267 270 262 266
120 169 187 178 213 227 212 227 172 211 201 172 197 195 210 181 223 212 135 146 161 198 204 211 211 200 189 190 189 192 200 192 191 200 205 203 202 202 207 205 205 204 205 200 194 187 186 185 194 197 200 201 206 208 205 207 207 210 211 213 211 209 211 215 216 215 217 219 223 221 217 215 209 216 207 208 198 216 216 213 216 210 207 197 194 197 206 209 214 209 202 215 237 247 254 259 233
144 154 222 152 199 235 208 117 125 206 179 173 168 245 230 207 212 162 168 152 149 180 212 216 226 217 197 186 192 198 196 191 199 207 205 201 201 203 208 206 208 206 201 199 196 196 184 182 186 190 196 201 205 210 210 206 209 212 214 216 212 208 213 214 218 218 215 219 219 220 222 221 215 213 213 206 210 223 220 222 220 211 207 193 198 190 209 213 218 217 221 217 226 242 240 244 263
180 132 232 193 178 220 154 184 152 212 122 170 225 241 238 209 188 171 152 184 168 194 207 210 219 226 221 204 198 202 202 203 207 207 204 203 203 206 209 207 207 208 207 205 206 201 188 183 181 189 190 198 200 211 213 212 209 216 217 218 212 210 212 215 213 211 216 217 217 219 220 218 213 216 209 209 206 219 225 226 220 218 198 197 203 207 221 215 226 229 227 236 239 240 248 260 261
143 164 198 178 217 150 152 149 179 212 147 192 208 247 246 232 132 148 149 195 203 207 204 205 209 215 221 220 216 212 211 208 216 213 207 205 205 208 207 208 206 207 209 208 209 206 199 193 188 195 189 197 198 207 211 212 210 217 219 217 214 209 215 217 217 211 211 210 209 214 211 217 217 212 207 209 213 212 225 227 220 214 184 203 213 206 218 229 228 231 231 243 253 247 248 252 240
209 244 154 189 210 177 177 175 156 300 113 181 207 256 207 242 204 135 172 202 206 213 209 205 206 209 217 225 224 224 218 214 216 214 208 207 212 212 208 206 205 207 208 210 212 210 210 203 198 201 196 195 200 203 211 212 211 215 218 214 215 211 217 216 214 213 212 209 210 211 206 209 212 212 208 205 217 216 232 232 227 200 188 208 214 215 219 233 232 225 230 224 250 272 258 262 264
187 214 204 195 199 188 211 95 174 140 228 198 212 250 246 320 79 166 174 218 204 220 222 212 212 217 213 218 226 227 226 223 220 214 209 209 213 211 208 204 206 206 209 212 212 213 213 210 211 211 207 199 201 202 205 209 213 214 215 215 215 218 220 218 214 212 216 216 211 211 204 200 206 208 206 207 217 223 231 231 222 184 185 206 219 221 230 223 232 237 245 216 227 245 264 266 272
170 183 204 199 224 220 216 188 139 189 180 237 192 234 250 247 241 230 201 185 221 229 219 209 211 217 215 218 225 231 231 229 232 219 212 212 215 211 208 204 206 208 210 212 214 215 216 215 214 212 213 210 204 203 204 209 212 216 217 219 220 222 222 223 221 221 223 220 216 210 202 202 200 204 205 211 225 225 228 228 215 192 198 209 216 225 225 219 225 226 238 240 210 236 268 283 303
185 189 200 196 193 205 223 167 97 224 193 220 216 228 239 244 248 252 200 179 211 245 263 240 222 224 225 222 225 227 232 239 237 229 220 216 216 214 207 206 208 211 212 213 213 214 216 217 216 216 213 215 213 210 206 209 211 213 216 217 223 222 223 219 217 219 219 223 221 217 212 208 199 199 202 208 222 229 230 223 210 194 199 201 206 218 227 227 224 221 231 253 250 240 244 262 271
185 189 195 207 209 189 103 242 122 217 255 234 235 242 249 251 247 243 241 148 222 235 236 234 228 220 220 221 221 224 225 235 205 215 219 217 217 214 212 210 211 213 216 214 213 214 215 215 213 216 213 213 212 210 207 203 205 210 218 219 221 218 220 216 213 214 219 222 223 222 222 221 206 197 201 202 211 221 228 219 204 200 197 205 215 224 227 226 209 217 229 218 242 260 253 219 229
182 174 196 203 212 227 165 181 116 198 235 233 205 257 255 250 248 248 241 181 236 230 226 228 229 220 221 220 227 222 229 217 193 221 219 211 211 213 212 216 213 215 214 214 214 212 213 213 216 217 216 212 212 211 207 205 205 207 205 213 219 224 218 211 214 211 217 218 220 221 222 227 217 200 203 208 206 215 209 205 205 208 201 209 219 227 228 224 206 202 208 235 212 243 258 244 203
177 196 189 205 207 281 288 212 195 170 194 255 217 253 260 255 247 247 247 238 239 241 235 232 232 227 221 222 229 235 230 234 230 234 219 208 206 205 205 211 213 215 212 213 214 212 214 214 216 217 217 215 213 211 210 210 208 209 211 213 214 225 227 220 217 216 203 210 216 219 221 223 215 217 215 215 215 215 213 199 200 211 215 201 211 222 221 224 218 210 206 239 240 209 245 225 215
186 185 179 211 160 180 215 173 160 180 246 316 28 285 271 270 259 250 250 247 243 241 243 242 235 241 234 227 222 225 230 232 229 229 221 209 202 206 207 209 208 208 213 215 212 211 211 213 214 215 217 216 214 210 208 212 210 209 214 221 222 223 226 218 223 220 206 206 216 213 219 224 220 224 219 216 219 215 218 205 197 196 203 197 210 213 219 231 226 208 206 221 241 251 219 229 206
199 196 201 193 159 211 266 101 136 117 224 340 283 274 265 252 256 246 227 223 235 242 244 242 237 233 246 265 294 239 233 222 227 231 219 204 203 211 209 208 203 207 211 212 209 206 210 210 210 210 211 211 212 208 204 207 207 209 213 218 228 232 230 219 218 221 215 216 222 223 223 219 220 220 219 221 220 213 224 225 212 201 198 201 209 216 227 223 216 227 211 210 212 233 245 247 186
192 229 215 197 160 192 153 102 170 229 238 166 251 287 259 227 233 245 238 175 218 219 231 236 232 224 223 235 240 244 235 234 231 230 217 191 203 213 215 213 209 213 213 214 209 209 209 212 211 211 211 211 209 212 208 202 205 207 207 211 216 220 226 221 219 216 210 214 225 231 222 216 216 216 222 222 223 223 222 221 221 204 200 202 211 218 225 231 226 203 196 209 214 222 247 251 232
186 205 183 178 186 187 169 165 166 247 249 105 280 235 267 126 251 240 241 229 231 203 207 233 227 221 215 219 227 233 231 236 227 240 235 205 206 201 208 209 211 215 220 214 211 215 214 216 212 208 209 210 211 213 207 202 207 211 212 212 214 213 217 220 208 205 218 222 222 221 220 212 209 212 216 220 221 214 210 220 219 215 209 201 196 207 216 228 230 220 215 214 219 211 212 244 245
212 119 165 183 173 171 181 189 213 262 3 234 195 256 277 282 268 248 218 214 239 242 228 222 223 223 219 218 223 226 227 228 225 226 223 220 212 201 210 211 209 216 217 208 216 216 214 214 211 212 213 215 211 207 203 210 210 212 214 216 214 218 218 221 210 213 220 224 220 213 211 207 202 207 205 207 215 211 207 216 214 215 220 224 214 204 212 210 223 228 218 201 211 203 208 230 238
221 127 145 158 170 156 151 192 186 339 354 262 175 155 278 254 233 118 203 247 237 242 238 230 224 223 223 222 224 226 227 224 221 227 225 209 211 214 215 210 210 209 204 204 208 213 218 219 216 214 216 214 214 214 206 213 206 211 216 218 220 222 223 223 216 213 219 216 225 217 210 203 200 206 208 209 210 217 208 211 212 216 220 217 208 220 225 219 211 191 183 204 220 220 221 230 240
16 113 80 82 86 83 136 162 221 235 251 252 200 170 252 275 227 244 167 245 244 236 237 235 228 222 217 219 224 228 230 226 221 230 236 220 214 218 220 226 217 213 211 205 210 209 212 212 214 216 219 215 213 212 212 211 216 215 221 221 222 220 218 221 218 218 222 224 222 220 207 213 207 202 206 208 209 212 209 205 214 216 212 212 204 209 216 223 229 216 197 197 215 220 222 225 226
129 132 120 116 85 90 74 63 307 278 252 252 173 172 235 292 213 213 202 228 226 232 238 242 228 216 220 215 212 217 225 226 216 225 235 238 224 225 217 225 232 228 204 217 219 216 212 208 211 213 219 218 214 211 208 210 213 218 221 223 221 219 214 214 214 219 220 216 217 213 209 213 210 202 197 205 207 207 207 204 209 211 208 207 205 206 211 208 207 213 218 213 214 218 218 219 217
138 139 142 126 100 117 198 271 144 232 254 108 142 174 189 237 220 202 226 54 183 225 228 230 231 222 214 211 217 223 226 225 222 228 237 226 226 226 214 234 232 227 212 216 223 221 217 214 213 216 218 215 215 211 206 208 210 218 222 223 220 218 215 213 214 216 214 207 206 214 212 209 204 195 193 197 201 203 204 207 207 208 204 200 207 209 209 210 213 214 208 202 203 210 216 207 206
170 141 156 163 165 160 206 188 215 220 243 74 77 128 210 237 240 307 293 264 253 243 248 249 244 244 229 212 211 221 221 217 220 228 240 229 218 203 204 220 214 215 216 219 221 220 222 220 215 216 219 213 214 210 207 207 211 219 222 223 223 219 219 217 213 215 215 213 211 212 208 207 196 192 198 199 198 200 204 207 204 208 212 209 212 206 207 203 211 205 200 198 201 201 205 203 204
171 165 169 165 164 181 207 197 298 304 195 159 96 133 261 285 290 229 248 245 235 235 226 242 252 254 258 221 90 245 231 229 225 225 238 238 219 210 212 218 218 218 219 223 225 221 222 224 220 219 224 213 209 210 209 210 216 221 222 224 225 223 222 222 218 217 215 213 214 214 209 205 198 194 190 197 200 202 204 206 206 207 207 207 203 206 207 207 207 200 194 198 201 206 205 206 207
191 153 179 185 166 174 188 193 199 217 268 117 226 141 244 209 196 9 264 303 327 320 253 246 251 259 268 310 287 281 272 263 236 238 229 227 226 219 226 227 230 232 240 235 229 228 227 229 227 227 227 218 208 211 209 216 220 223 224 224 224 223 223 220 223 221 218 216 213 212 211 209 206 201 197 202 204 203 201 203 204 205 206 207 200 200 200 204 204 202 200 200 200 199 195 193 202
201 186 7 209 206 78 239 9 259 129 158 157 182 225 272 237 357 275 239 257 262 249 240 228 251 242 207 245 233 236 246 251 238 241 249 248 239 245 240 240 232 222 223 229 230 227 224 230 233 237 236 232 220 213 214 219 223 224 224 222 222 220 219 220 222 218 220 219 213 207 209 210 209 205 204 203 207 204 200 202 199 203 203 203 199 198 199 202 203 202 196 192 197 178 180 179 188
173 148 206 203 13 80 105 138 52 58 340 254 168 268 260 266 269 262 264 200 245 229 232 234 240 234 191 240 231 228 226 224 224 237 250 261 254 225 223 236 242 222 213 219 221 219 227 231 234 238 240 237 229 222 219 220 225 224 224 222 222 220 219 218 220 219 215 217 214 206 204 207 207 207 205 201 205 201 199 200 200 202 204 204 200 199 201 199 197 194 189 189 186 174 181 185 183
104 205 192 95 71 15 234 237 104 226 232 249 146 235 255 305 288 140 223 214 242 225 218 219 247 262 243 244 245 223 213 206 232 256 260 265 268 267 249 229 227 231 231 232 230 220 222 230 230 235 239 236 234 231 226 226 227 227 227 225 225 225 222 221 222 222 216 212 210 210 208 208 205 202 201 196 198 197 200 194 197 199 202 201 199 197 194 189 188 191 190 189 184 176 179 175 174
189 196 128 163 191 212 201 214 212 191 220 254 216 256 272 237 241 184 194 214 225 233 192 181 224 228 242 248 237 188 175 209 228 232 240 240 235 244 238 232 220 224 233 248 247 223 225 224 225 229 232 230 230 230 229 231 232 231 229 229 228 226 225 224 221 219 215 211 208 207 207 205 201 201 198 190 197 199 197 193 198 197 194 193 196 197 191 192 189 180 177 159 163 163 164 163 161
17 82 180 355 359 228 168 210 330 181 234 37 265 110 265 187 229 217 232 203 221 226 220 213 213 216 215 233 253 275 313 179 180 208 217 233 251 249 248 250 237 211 262 276 270 248 232 227 222 230 237 236 228 222 219 228 231 234 231 231 229 226 225 222 216 212 213 212 206 204 206 206 207 203 205 200 198 197 191 192 194 192 190 189 190 189 181 179 179 177 170 159 163 158 148 142 128
174 181 190 175 219 339 327 61 210 210 225 210 271 273 244 259 201 207 223 213 200 207 218 216 213 222 239 244 246 262 248 265 272 277 279 283 293 283 273 276 265 246 236 237 234 236 251 243 240 236 236 235 231 229 219 219 223 225 225 226 226 221 219 215 215 213 216 216 215 208 211 213 211 207 205 201 196 193 193 192 191 189 188 186 184 179 174 168 167 165 163 159 152 154 143 137 127
179 185 195 189 162 163 176 212 92 280 220 219 189 246 271 271 148 211 230 243 227 211 112 230 241 223 225 226 239 212 247 286 296 297 303 300 298 285 274 257 242 227 217 215 220 236 244 251 274 277 253 251 248 241 235 230 228 228 221 221 219 214 212 209 209 210 215 214 212 207 210 209 205 199 194 193 189 188 188 189 188 188 188 182 181 170 170 163 160 157 155 157 154 147 145 153 158